Atlantic City Weather Center

Moon Phase Calendar



Online Cameras

 


      

Current Conditions in Atlantic City
12/1/2020 6:21:39 AM

48°F
Feels Like 44
Clouds
Humidity
93%
Pressure
29.56"
Wind
4.7 mph (SW)
Dew Point
46°F
UV Index
0/10 (Low)
Visibility
6 mi

Hourly Forecast

Date & Time Tue, Dec 1
6:00 AM
Tue, Dec 1
7:00 AM
Tue, Dec 1
8:00 AM
Tue, Dec 1
9:00 AM
Tue, Dec 1
10:00 AM
Tue, Dec 1
11:00 AM
Tue, Dec 1
12:00 PM
Tue, Dec 1
1:00 PM
Tue, Dec 1
2:00 PM
Tue, Dec 1
3:00 PM
Tue, Dec 1
4:00 PM
Tue, Dec 1
5:00 PM
Tue, Dec 1
6:00 PM
Tue, Dec 1
7:00 PM
Tue, Dec 1
8:00 PM
Tue, Dec 1
9:00 PM
Tue, Dec 1
10:00 PM
Tue, Dec 1
11:00 PM
Wed, Dec 2
12:00 AM
Wed, Dec 2
1:00 AM
Wed, Dec 2
2:00 AM
Wed, Dec 2
3:00 AM
Wed, Dec 2
4:00 AM
Wed, Dec 2
5:00 AM
Wed, Dec 2
6:00 AM
Wed, Dec 2
7:00 AM
Wed, Dec 2
8:00 AM
Wed, Dec 2
9:00 AM
Wed, Dec 2
10:00 AM
Wed, Dec 2
11:00 AM
Wed, Dec 2
12:00 PM
Wed, Dec 2
1:00 PM
Wed, Dec 2
2:00 PM
Wed, Dec 2
3:00 PM
Wed, Dec 2
4:00 PM
Wed, Dec 2
5:00 PM
Wed, Dec 2
6:00 PM
Wed, Dec 2
7:00 PM
Wed, Dec 2
8:00 PM
Wed, Dec 2
9:00 PM
Wed, Dec 2
10:00 PM
Wed, Dec 2
11:00 PM
Thu, Dec 3
12:00 AM
Thu, Dec 3
1:00 AM
Thu, Dec 3
2:00 AM
Thu, Dec 3
3:00 AM
Thu, Dec 3
4:00 AM
Thu, Dec 3
5:00 AM
Condition
Clouds

Clouds

Clouds

Clouds

Clouds

Clouds

Clouds

Clouds

Clouds

Clouds

Clouds

Clouds

Clouds

Clouds

Clouds

Clouds

Clouds

Clouds

Clouds

Clouds

Clear

Clear

Clear

Clear

Clear

Clear

Clear

Clouds

Clouds

Clouds

Clouds

Clouds

Clouds

Clouds

Clouds

Clouds

Clouds

Clouds

Clear

Clear

Clear

Clear

Clear

Clear

Clear

Clear

Clear

Clear
Temperature 48°F49°F49°F48°F47°F47°F45°F44°F45°F45°F45°F44°F44°F43°F42°F42°F41°F40°F40°F40°F40°F39°F39°F39°F39°F39°F39°F40°F41°F42°F42°F43°F44°F44°F43°F42°F41°F40°F40°F39°F38°F37°F37°F36°F36°F36°F35°F35°F
Feels Like 37°F36°F35°F33°F31°F31°F31°F29°F29°F30°F31°F30°F29°F29°F28°F28°F27°F27°F26°F26°F26°F26°F26°F26°F25°F25°F25°F26°F27°F28°F28°F29°F30°F30°F30°F29°F27°F26°F26°F26°F25°F25°F25°F25°F25°F24°F24°F24°F
Cloudiness 75%78%95%72%48%36%37%47%89%86%80%76%80%82%75%87%64%48%38%32%0%0%0%0%0%0%0%39%26%20%22%31%31%45%30%23%18%15%0%0%0%0%0%0%0%0%0%0%
Visibility 6 mi6 mi6 mi6 mi6 mi6 mi6 mi6 mi6 mi6 mi6 mi6 mi6 mi6 mi6 mi6 mi6 mi6 mi6 mi6 mi6 mi6 mi6 mi6 mi6 mi6 mi6 mi6 mi6 mi6 mi6 mi6 mi6 mi6 mi6 mi6 mi6 mi6 mi6 mi6 mi6 mi6 mi6 mi6 mi6 mi6 mi6 mi6 mi
Precipitation 0%0%0%0%0%0%0%0%14%5%0%0%0%0%0%0%0%0%0%0%0%0%0%0%0%0%0%0%0%0%0%0%0%0%0%0%0%0%0%0%0%0%0%0%0%0%0%0%
Humidity 93%83%74%67%69%70%76%75%68%62%61%62%62%64%66%67%69%69%70%71%72%72%73%73%73%74%73%70%67%66%65%63%62%62%64%67%68%70%72%74%76%78%80%81%82%84%84%85%
Dew Point 46°F44°F41°F38°F37°F38°F38°F37°F35°F33°F33°F32°F32°F31°F31°F30°F30°F29°F29°F29°F29°F29°F29°F29°F29°F29°F29°F29°F29°F29°F30°F30°F30°F30°F30°F30°F30°F29°F29°F29°F29°F29°F29°F29°F30°F30°F30°F30°F
Pressure 29.56"29.56"29.62"29.62"29.65"29.65"29.65"29.65"29.68"29.68"29.71"29.77"29.8"29.8"29.83"29.85"29.85"29.88"29.88"29.91"29.91"29.91"29.91"29.94"29.97"29.97"30"30"30.03"30.03"30.03"30.03"30.03"30.06"30.06"30.09"30.12"30.15"30.18"30.18"30.18"30.21"30.21"30.24"30.24"30.24"30.24"30.27"
Wind Speed 17.9 mph20.2 mph20.9 mph22.6 mph22.5 mph22.3 mph21.6 mph21.2 mph22.4 mph21.3 mph19.5 mph18.8 mph19.7 mph19 mph17.8 mph18 mph18.2 mph17.8 mph17.8 mph17.8 mph17.3 mph17.1 mph17.2 mph17.5 mph17.9 mph18.1 mph18.9 mph19.3 mph18.8 mph18.6 mph18.8 mph18.3 mph18.4 mph18 mph16.3 mph16.2 mph17.4 mph17.8 mph17.2 mph16.6 mph16 mph15 mph14.1 mph14 mph14.1 mph13.6 mph13.2 mph13 mph
Wind
Direction
226°
SW
226°
SW
226°
SW
224°
SW
231°
SW
233°
SW
241°
WSW
245°
WSW
243°
WSW
246°
WSW
244°
WSW
247°
WSW
251°
WSW
255°
WSW
253°
WSW
256°
WSW
257°
WSW
256°
WSW
253°
WSW
253°
WSW
253°
WSW
254°
WSW
255°
WSW
255°
WSW
255°
WSW
257°
WSW
260°
W
263°
W
267°
W
267°
W
269°
W
270°
W
274°
W
276°
W
276°
W
274°
W
277°
W
282°
WNW
289°
WNW
290°
WNW
289°
WNW
285°
WNW
283°
WNW
282°
WNW
281°
W
280°
W
280°
W
280°
W

Daily Forecast

Date High Low Precip. Humidity
Today
Dec 1

Clouds
56 °F
40 °F
16%
70%
Wednesday
Dec 2

Clouds
44 °F
38 °F
0%
66%
Thursday
Dec 3

Clear
46 °F
35 °F
0%
68%
Friday
Dec 4

Rain
51 °F
45 °F
94%
65%
Saturday
Dec 5

Rain
52 °F
46 °F
100%
75%
Sunday
Dec 6

Rain
56 °F
44 °F
100%
85%
Monday
Dec 7

Clouds
44 °F
38 °F
21%
72%
Tuesday
Dec 8

Rain
42 °F
33 °F
41%
78%
Wednesday
Dec 9

Clouds
44 °F
35 °F
13%
75%
Thursday
Dec 10

Clear
47 °F
40 °F
0%
70%
Friday
Dec 11

Clouds
46 °F
37 °F
0%
67%
Saturday
Dec 12

Clouds
50 °F
39 °F
0%
67%
Sunday
Dec 13

Rain
58 °F
48 °F
100%
89%
Monday
Dec 14

Clear
40 °F
29 °F
77%
77%
Tuesday
Dec 15

Snow
37 °F
28 °F
65%
78%
Wednesday
Dec 16

Clear
37 °F
30 °F
2%
80%


Temperature 8-14 Day Outlook



Precipitation 8-14 Day Outlook




Quick Links
Atlantic City News
Atlantic City Photos
Atlantic City Videos




About Us
Contact Us
Site Map
Search Site
Advertise With Us
   
AtlanticCity.USCoast.info
THE ATLANTIC CITY WEBSITE

Copyright 2020, Coastal Town
Privacy    |    Legal